TimeCST,TemperatureF,Dew PointF,Humidity,Sea Level PressureIn,VisibilityMPH,Wind Direction,Wind SpeedMPH,Gust SpeedMPH,PrecipitationIn,Events,Conditions,WindDirDegrees,DateUTC
12:15 AM,44.6,44.6,100,29.92,1.5,East,4.6,-,N/A,,Overcast,100,2012-12-09 06:15:00
12:35 AM,44.6,44.6,100,29.91,1.0,ESE,5.8,-,N/A,,Overcast,120,2012-12-09 06:35:00
12:55 AM,44.6,44.6,100,29.91,0.8,ESE,5.8,-,N/A,,Overcast,120,2012-12-09 06:55:00
1:15 AM,46.4,44.6,93,29.90,0.8,ESE,8.1,-,N/A,,Overcast,120,2012-12-09 07:15:00
1:35 AM,46.4,44.6,93,29.88,0.8,ESE,6.9,-,N/A,,Overcast,120,2012-12-09 07:35:00
1:55 AM,46.4,44.6,93,29.87,1.0,SE,8.1,-,N/A,,Overcast,130,2012-12-09 07:55:00
2:15 AM,46.4,44.6,93,29.87,1.0,SE,5.8,-,N/A,,Overcast,130,2012-12-09 08:15:00
2:35 AM,46.4,44.6,93,29.86,0.8,ESE,6.9,-,N/A,,Overcast,120,2012-12-09 08:35:00
2:55 AM,46.4,44.6,93,29.86,0.8,SE,4.6,-,N/A,,Overcast,130,2012-12-09 08:55:00
3:15 AM,46.4,44.6,93,29.85,0.5,SE,5.8,-,N/A,,Overcast,130,2012-12-09 09:15:00
3:35 AM,46.4,44.6,93,29.84,0.5,SSE,5.8,-,N/A,,Overcast,150,2012-12-09 09:35:00
3:55 AM,46.4,44.6,93,29.85,0.2,South,4.6,-,N/A,,Overcast,180,2012-12-09 09:55:00
4:15 AM,46.4,44.6,93,29.84,0.2,SSE,4.6,-,N/A,,Overcast,150,2012-12-09 10:15:00
4:35 AM,46.4,44.6,93,29.84,0.2,South,5.8,-,N/A,,Overcast,180,2012-12-09 10:35:00
4:55 AM,46.4,44.6,93,29.84,0.2,SSE,4.6,-,N/A,,Overcast,150,2012-12-09 10:55:00
5:15 AM,46.4,44.6,93,29.84,0.8,South,3.5,-,N/A,,Overcast,170,2012-12-09 11:15:00
5:35 AM,46.4,46.4,100,29.85,3.0,Calm,Calm,-,N/A,,Overcast,0,2012-12-09 11:35:00
5:55 AM,46.4,46.4,100,29.85,2.5,Calm,Calm,-,N/A,,Overcast,0,2012-12-09 11:55:00
6:15 AM,46.4,46.4,100,29.85,0.8,Calm,Calm,-,N/A,,Overcast,0,2012-12-09 12:15:00
6:35 AM,46.4,46.4,100,29.84,0.2,South,4.6,-,N/A,,Overcast,170,2012-12-09 12:35:00
6:55 AM,46.4,46.4,100,29.84,0.2,SSE,4.6,-,N/A,,Overcast,160,2012-12-09 12:55:00
7:15 AM,48.2,46.4,93,29.84,0.2,Calm,Calm,-,N/A,,Overcast,0,2012-12-09 13:15:00
7:35 AM,48.2,46.4,93,29.84,0.2,Calm,Calm,-,N/A,,Overcast,0,2012-12-09 13:35:00
7:55 AM,48.2,46.4,93,29.83,0.2,Calm,Calm,-,N/A,,Overcast,0,2012-12-09 13:55:00
8:15 AM,48.2,46.4,93,29.84,0.2,Calm,Calm,-,N/A,,Overcast,0,2012-12-09 14:15:00
8:35 AM,48.2,46.4,93,29.85,0.2,Calm,Calm,-,N/A,,Overcast,0,2012-12-09 14:35:00
8:55 AM,48.2,48.2,100,29.85,0.2,Calm,Calm,-,N/A,,Overcast,0,2012-12-09 14:55:00
9:15 AM,48.2,46.4,93,29.86,0.2,Calm,Calm,-,N/A,,Overcast,0,2012-12-09 15:15:00
9:35 AM,50.0,48.2,94,29.86,0.2,SSE,3.5,-,N/A,,Overcast,150,2012-12-09 15:35:00
9:55 AM,50.0,48.2,94,29.85,0.5,South,3.5,-,N/A,,Overcast,170,2012-12-09 15:55:00
10:35 AM,51.8,50.0,94,29.84,0.5,SSE,4.6,-,N/A,,Overcast,160,2012-12-09 16:35:00
10:55 AM,51.8,50.0,94,29.83,1.0,Calm,Calm,-,N/A,,Overcast,0,2012-12-09 16:55:00
11:15 AM,51.8,51.8,100,29.82,0.8,Calm,Calm,-,N/A,,Overcast,0,2012-12-09 17:15:00
11:35 AM,51.8,51.8,100,29.82,0.8,Calm,Calm,-,N/A,,Overcast,0,2012-12-09 17:35:00
11:55 AM,51.8,51.8,100,29.81,1.0,Calm,Calm,-,N/A,,Overcast,0,2012-12-09 17:55:00
12:15 PM,51.8,51.8,100,29.79,0.8,Calm,Calm,-,N/A,,Overcast,0,2012-12-09 18:15:00
12:35 PM,53.6,51.8,94,29.79,0.8,Calm,Calm,-,N/A,,Overcast,0,2012-12-09 18:35:00
12:55 PM,53.6,53.6,100,29.79,1.8,SW,3.5,-,N/A,,Overcast,220,2012-12-09 18:55:00
1:15 PM,53.6,53.6,100,29.79,1.5,Calm,Calm,-,N/A,,Overcast,0,2012-12-09 19:15:00
1:35 PM,53.6,51.8,94,29.78,2.0,Calm,Calm,-,N/A,,Overcast,0,2012-12-09 19:35:00
1:55 PM,53.6,53.6,100,29.78,1.0,NNW,3.5,-,N/A,,Overcast,330,2012-12-09 19:55:00
2:15 PM,53.6,53.6,100,29.77,1.0,NNW,8.1,-,N/A,,Overcast,330,2012-12-09 20:15:00
2:35 PM,51.8,50.0,94,29.75,1.5,North,9.2,-,0.01,,Overcast,360,2012-12-09 20:35:00
2:55 PM,51.8,50.0,94,29.78,3.0,NW,9.2,-,0.01,Thunderstorm,Overcast,320,2012-12-09 20:55:00
3:15 PM,51.8,50.0,94,29.77,5.0,NNW,5.8,-,N/A,,Overcast,330,2012-12-09 21:15:00
3:35 PM,51.8,50.0,94,29.77,2.5,North,8.1,-,N/A,,Overcast,350,2012-12-09 21:35:00
3:55 PM,51.8,48.2,88,29.79,2.0,NNW,8.1,-,N/A,,Overcast,330,2012-12-09 21:55:00
4:15 PM,50.0,48.2,94,29.79,1.5,NNW,9.2,-,N/A,,Overcast,340,2012-12-09 22:15:00
4:35 PM,48.2,46.4,93,29.80,1.5,NNW,10.4,-,N/A,,Overcast,330,2012-12-09 22:35:00
4:55 PM,48.2,46.4,93,29.81,3.0,NNW,10.4,-,N/A,,Overcast,330,2012-12-09 22:55:00
5:15 PM,48.2,46.4,93,29.81,6.0,NW,5.8,-,N/A,,Overcast,320,2012-12-09 23:15:00
5:35 PM,48.2,46.4,93,29.81,10.0,NW,8.1,-,N/A,,Overcast,320,2012-12-09 23:35:00
5:55 PM,48.2,44.6,87,29.82,10.0,NW,6.9,-,N/A,,Overcast,320,2012-12-09 23:55:00
6:15 PM,48.2,44.6,87,29.84,9.0,NNW,5.8,-,N/A,,Overcast,330,2012-12-10 00:15:00
6:35 PM,46.4,44.6,93,29.84,10.0,NW,9.2,16.1,N/A,,Overcast,310,2012-12-10 00:35:00
6:55 PM,46.4,44.6,93,29.84,10.0,NW,8.1,-,N/A,,Overcast,320,2012-12-10 00:55:00
7:15 PM,46.4,42.8,87,29.84,10.0,NNW,9.2,-,N/A,,Overcast,330,2012-12-10 01:15:00
7:35 PM,46.4,42.8,87,29.84,9.0,NNW,11.5,18.4,N/A,,Overcast,340,2012-12-10 01:35:00
7:55 PM,44.6,42.8,93,29.85,9.0,NNW,8.1,-,N/A,,Overcast,330,2012-12-10 01:55:00
8:15 PM,44.6,39.2,81,29.86,10.0,NW,11.5,20.7,N/A,,Overcast,320,2012-12-10 02:15:00
8:35 PM,44.6,39.2,81,29.87,10.0,NW,11.5,17.3,N/A,,Overcast,320,2012-12-10 02:35:00
8:55 PM,44.6,39.2,81,29.87,10.0,NW,10.4,-,N/A,,Overcast,320,2012-12-10 02:55:00
9:15 PM,42.8,39.2,87,29.88,10.0,NW,9.2,17.3,N/A,,Overcast,310,2012-12-10 03:15:00
9:35 PM,42.8,39.2,87,29.88,10.0,NW,8.1,-,N/A,,Overcast,320,2012-12-10 03:35:00
9:55 PM,42.8,37.4,81,29.88,10.0,NW,10.4,17.3,N/A,,Overcast,310,2012-12-10 03:55:00
10:15 PM,42.8,37.4,81,29.88,10.0,NW,11.5,18.4,N/A,,Overcast,320,2012-12-10 04:15:00
10:35 PM,42.8,35.6,76,29.88,10.0,NW,8.1,-,N/A,,Overcast,310,2012-12-10 04:35:00
10:55 PM,42.8,35.6,76,29.88,10.0,NW,6.9,-,N/A,,Mostly Cloudy,310,2012-12-10 04:55:00
11:15 PM,41.0,35.6,81,29.88,10.0,NW,6.9,-,N/A,,Mostly Cloudy,310,2012-12-10 05:15:00
11:35 PM,41.0,35.6,81,29.87,10.0,NW,10.4,16.1,N/A,,Mostly Cloudy,320,2012-12-10 05:35:00
11:55 PM,41.0,33.8,76,29.88,10.0,NW,9.2,-,N/A,,Mostly Cloudy,310,2012-12-10 05:55:00